Flag for Canada Weather past 2 weeks in Prince George, British Columbia, Canada

Now
27 °F

Sunny.


Feels Like: 15 °F
Forecast: 9 / 25 °F
Wind: 15 mph from North

Location: Prince George

Current Time: Mar 2, 2015 at 1:32:30 PM

Latest Report: Mar 2, 2015 at 1:00 PM


Visibility: 9 mi

Pressure: 30.45 "Hg

Humidity: 43%

Dew point: 7 °F

Location of Prince GeorgeLocation

Historic Weather in Prince George — Graph

°F

Prince George temperature yesterday

Maximum temperature yesterday: 36 °F (at 1:00 PM)
Minimum temperature yesterday: 18 °F (at 6:00 AM)
Average temperature yesterday: 29 °F

Past Weeks' High & Low Weather Summary

 TemperatureHumidityPressure
High45 °F (Feb 24, 3:00 PM)100% (Feb 15, 8:00 PM)30.65 "Hg (Feb 15, 8:00 PM)
Low7 °F (Feb 28, 7:00 AM)39% (Feb 24, 3:00 AM)30.03 "Hg (Feb 18, 2:00 PM)
Average30 °F76%30.33 "Hg
* Reported Feb 15 12:00 Noon — Mar 2 12:00 Noon, Prince George, Weather by CustomWeather, © 2015

Note: Actual official high and low records may vary slightly from our data, if they occured in-between our weather recording intervals... More about our weather records

Advertising

Prince George weather history for previous 24 hours

 ConditionsComfort  
Time TempWeatherWind HumidityBarometerVisibility
12:00 PM
Mon, Mar 2
27 °FPassing clouds.16 mph43%30.44 "Hg9 mi
11:00 AM27 °FPassing clouds.15 mph43%30.43 "Hg9 mi
10:00 AM27 °FLight snow. Sunny.14 mph46%30.42 "Hg3 mi
9:00 AM25 °FBroken clouds.13 mph74%30.38 "Hg9 mi
8:00 AM23 °FPassing clouds.10 mph93%30.36 "Hg9 mi
7:00 AM25 °FPassing clouds.6 mph93%30.32 "Hg9 mi
6:01 AM27 °FLight snow. Mostly cloudy.12 mph93%30.30 "Hg2 mi
5:00 AM27 °FLight snow. Mostly cloudy.7 mph86%30.28 "Hg9 mi
4:00 AM28 °FLight snow. Overcast.9 mph74%30.25 "Hg9 mi
3:00 AM28 °FMostly cloudy.5 mph80%30.22 "Hg9 mi
2:00 AM28 °FOvercast.7 mph80%30.22 "Hg9 mi
1:00 AM27 °FPassing clouds.8 mph80%30.21 "Hg9 mi
12:00 AM25 °FPassing clouds.9 mph80%30.20 "Hg9 mi
11:00 PM
Sun, Mar 1
27 °FClear.7 mph69%30.17 "Hg9 mi
10:00 PM30 °FOvercast.12 mph64%30.16 "Hg9 mi
9:00 PM32 °FMostly cloudy.12 mph60%30.15 "Hg9 mi
8:53 PM32 °FOvercast.17 mph60%30.15 "Hg9 mi
8:00 PM32 °FPassing clouds.6 mph60%30.13 "Hg9 mi
7:00 PM34 °FPassing clouds.6 mph56%30.12 "Hg9 mi
6:00 PM34 °FOvercast.8 mph56%30.10 "Hg9 mi
5:00 PM36 °FPartly sunny.5 mph52%30.06 "Hg9 mi
4:00 PM36 °FMostly cloudy.6 mph52%30.05 "Hg9 mi
3:00 PM36 °FPartly sunny.7 mph48%30.05 "Hg9 mi
2:00 PM36 °FPartly sunny.8 mph48%30.06 "Hg9 mi
1:00 PM36 °FPartly sunny.9 mph52%30.08 "Hg9 mi
Weather by CustomWeather, © 2015

See weather overviewHow to use our weather pages